{"data":{"norad_id":57142,"intl_designator":"2023-090AT","name":"STARLINK-5361","alt_names":[],"object_type":"PAYLOAD","status":"ACTIVE","operator":null,"country":"US","launch_date":"2023-06-23","launch_site_code":"AFETR","launch_vehicle":null,"mission":null,"orbit_class":"UNKNOWN","rcs_meters":null,"size_class":null,"mass_kg":null,"dimensions":null,"purposes":["comms"],"wikipedia_slug":null,"has_3d_model":false,"image_url":null,"decayed_at":null,"tle_current":{"epoch":"2026-09-20T23:34:18.132384Z","epoch_age_seconds":79200,"freshness":"FRESH","line1":"1 57142U 23090AT  26263.98215431 -.00000233  00000+0  10549-5 0  9997","line2":"2 57142  43.0033 240.1913 0000695 298.5497  61.5285 15.27573601180225","mean_motion":15.27573601,"eccentricity":6.95e-5,"inclination_deg":43.0033,"raan_deg":240.1913,"arg_perigee_deg":298.5497,"mean_anomaly_deg":61.5285,"bstar":1.0549e-6,"rev_number":18022,"period_min":94.267143596703,"perigee_km":482.59140324921,"apogee_km":483.54511077993,"semimajor_km":6861.2052570146,"source":"CELESTRAK","updated_at":"2026-09-21T09:00:33.566559Z"}}}